AO-07 1 07530U 74089B 25349.03724822 -.00000025 00000-0 13488-3 0 9999 2 07530 101.9966 355.3291 0012375 122.3157 244.7376 12.53694218337441 UO-11 1 14781U 84021B 25349.34503436 .00001088 00000-0 11811-3 0 9999 2 14781 97.7811 312.3331 0009256 74.9895 285.2347 14.90152009229742 AO-27 1 22825U 93061C 25349.16636885 .00000125 00000-0 64930-4 0 9998 2 22825 98.7144 51.4394 0007314 281.6015 78.4346 14.30877537680683 FO-29 1 24278U 96046B 25349.13897629 -.00000040 00000-0 -34050-5 0 9999 2 24278 98.5461 217.9525 0349253 213.7412 144.1055 13.53262913448275 GO-32 1 25397U 98043D 25348.95462802 .00000110 00000-0 67884-4 0 9997 2 25397 98.9921 332.2179 0001999 53.7481 306.3881 14.24377663425103 ISS 1 25544U 98067A 25349.24971864 .00007132 00000-0 13467-3 0 9991 2 25544 51.6306 130.0501 0003193 251.9008 108.1633 15.49601155543241 NO-44 1 26931U 01043C 25349.32066174 .00000211 00000-0 10960-3 0 9994 2 26931 67.0515 359.8041 0007427 269.7634 90.2617 14.31856251264120 SO-50 1 27607U 02058C 25349.30156047 .00001784 00000-0 23068-3 0 9998 2 27607 64.5542 337.6808 0072346 296.1338 63.2337 14.82402128237197 CO-55 1 27844U 03031E 25349.25971455 .00000406 00000-0 19503-3 0 9994 2 27844 98.6764 355.1302 0009649 6.2771 353.8527 14.24181404165494 CO-57 1 27848U 03031J 25349.29774373 .00000342 00000-0 16942-3 0 9995 2 27848 98.6792 355.0277 0009873 23.7561 336.4071 14.23489145165212 RS-22 1 27939U 03042A 25349.36960715 .00001461 00000-0 23561-3 0 9991 2 27939 98.3365 163.6390 0012161 127.7424 347.6647 14.72980178188485 CO-58 1 28895U 05043F 25349.36477788 .00001578 00000-0 25980-3 0 9995 2 28895 98.2718 136.4867 0015326 70.5258 289.7603 14.71911294 74700 CO-65 1 32785U 08021C 25349.36096494 .00004842 00000-0 32684-3 0 9994 2 32785 97.8076 322.4865 0007894 299.9392 60.1050 15.07077621957486 CO-66 1 32791U 08021J 25349.19962830 .00011931 00000-0 47591-3 0 9998 2 32791 97.7440 334.4298 0001624 193.5206 166.5987 15.25345478959174 RS-30 1 32953U 08025A 25349.36637297 .00000044 00000-0 24419-3 0 9994 2 32953 82.5017 109.7891 0018923 355.2988 4.7911 12.43172174796854 SRMSAT 1 37841U 11058D 25349.34827455 .00000435 00000-0 92524-4 0 9997 2 37841 19.9716 92.1629 0011822 342.2389 56.0239 14.11512323731810 ZACUBE-1 1 39417U 13066B 25349.32832255 .00002958 00000-0 24414-3 0 9995 2 39417 97.8058 305.8774 0041984 138.7633 221.6774 14.99110204653165 Delfi-N3xt 1 39428U 13066N 25349.29006762 .00004823 00000-0 45385-3 0 9992 2 39428 97.8343 265.1753 0080838 97.0847 263.9572 14.91862753647178 GOMX-1 1 39430U 13066Q 25349.35448637 .00002592 00000-0 40073-3 0 9993 2 39430 97.6593 196.3164 0129566 308.1601 50.7987 14.68600291642924 LO-74 1 39440U 13066AA 25349.35473435 .00003083 00000-0 30041-3 0 9998 2 39440 97.8706 293.0229 0057962 277.0207 82.4422 14.91999807649569 AO-73 1 39444U 13066AE 25348.84766109 .00006311 00000-0 42942-3 0 9998 2 39444 97.8063 312.1518 0040622 108.8629 251.7009 15.05998371651888 DTUSAT-2 1 40030U 14033W 25349.18488800 .00006008 00000-0 35593-3 0 9990 2 40030 98.0752 330.7891 0009522 132.8636 227.3394 15.11776066624853 EO-80 1 40032U 14033Y 25349.19540677 .00005370 00000-0 31783-3 0 9992 2 40032 98.0634 330.1904 0009919 83.1116 277.1241 15.11862041624835 LILACSAT-2 1 40908U 15049K 25349.32728001 .00011656 00000-0 25051-3 0 9991 2 40908 97.4915 14.7893 0007471 187.4334 172.6805 15.44808294567304 IO-86 1 40931U 15052B 25151.18580175 .00001241 00000-0 78118-4 0 9996 2 40931 6.0006 24.0987 0012733 338.8432 21.1169 14.78805930523159 Horyu-4 1 41340U 16012D 25349.19346362 .00038911 00000-0 64558-3 0 9992 2 41340 30.9942 293.1310 0006944 256.9396 103.0478 15.50828415541937 Lapan A3 1 41603U 16040E 25349.24287108 .00003470 00000-0 11613-3 0 9999 2 41603 97.1428 346.7083 0009371 324.0598 36.0013 15.31574336526643 CAS-2T 1 41847U 16066G 25349.18655967 .00001130 00000-0 16924-3 0 9993 2 41847 98.4036 61.9030 0343078 327.7345 30.3260 14.44136237478234 TechnoSat 1 42829U 17042E 25349.32416114 .00003267 00000-0 24345-3 0 9993 2 42829 97.4046 149.4186 0018269 5.5212 354.6212 15.03436898459065 AO-91 1 43017U 17073E 25349.16476193 .00007943 00000-0 37711-3 0 9998 2 43017 97.4953 215.3057 0159238 242.0262 116.4775 15.08921140437605 S-Net D 1 43186U 18014G 25349.26490109 .00004624 00000-0 25544-3 0 9999 2 43186 97.5490 250.3324 0007072 303.8583 56.1975 15.14388208430902 S-Net B 1 43187U 18014H 25349.27299866 .00004895 00000-0 27035-3 0 9995 2 43187 97.5495 250.3209 0007709 297.2088 62.8358 15.14363525430907 S-Net A 1 43188U 18014J 25349.26459827 .00004613 00000-0 25479-3 0 9998 2 43188 97.5505 250.4895 0007567 298.4145 61.6323 15.14394736430908 S-Net C 1 43189U 18014K 25349.27597111 .00005026 00000-0 27749-3 0 9990 2 43189 97.5518 250.5464 0008915 288.1339 71.8922 15.14358566429452 Ten-Koh 1 43677U 18084G 25349.24345121 .00002589 00000-0 20330-3 0 9998 2 43677 98.0744 168.9648 0009273 17.5976 342.5567 15.01836047388544 PO-101 1 43678U 18084H 25349.32137213 .00001728 00000-0 14622-3 0 9990 2 43678 98.1026 172.8874 0007655 39.9124 320.2660 14.99449542388654 QO-100 1 43700U 18090A 25349.20629856 .00000000 00000-0 00000-0 0 9993 2 43700 0.0243 358.5692 0000914 281.7772 263.8348 1.00269249 25836 MinXSS-2 1 43758U 18099A 25349.16788517 .00018078 00000-0 53938-3 0 9995 2 43758 97.4798 56.5655 0009097 202.9424 157.1413 15.34656020385799 AO-95 1 43770U 18099N 25349.15986604 .00008052 00000-0 35595-3 0 9995 2 43770 97.4683 45.4245 0008200 276.3723 83.6579 15.21943950385186 SNUSat 2 1 43782U 18099AA 25349.09725986 .00006757 00000-0 33209-3 0 9995 2 43782 97.4360 40.4635 0010218 213.7448 146.3137 15.18320759385066 SnugLite 1 43784U 18099AC 25349.08066614 .00008444 00000-0 36906-3 0 9994 2 43784 97.4173 40.5024 0002497 189.9587 170.1600 15.22337743385269 ITASat 1 1 43786U 18099AE 25349.13998138 .00005040 00000-0 26456-3 0 9995 2 43786 97.4330 39.4013 0011768 274.2985 85.6903 15.16112721384997 EAGLET 1 1 43790U 18099AJ 25349.08867222 .00004063 00000-0 24589-3 0 9992 2 43790 97.4528 38.5657 0010074 260.5764 99.4327 15.11139883384511 ESEO 1 43792U 18099AL 25349.07766622 .00002130 00000-0 16035-3 0 9995 2 43792 97.4223 29.1663 0011286 239.5400 120.4712 15.03486229384138 JO-97 1 43803U 18099AX 25349.10933874 .00011719 00000-0 44552-3 0 9995 2 43803 97.4425 46.9178 0006063 192.7922 167.3164 15.26926838385478 Suomi 100 1 43804U 18099AY 25349.15169299 .00008280 00000-0 35063-3 0 9999 2 43804 97.4488 45.5934 0010395 202.9084 157.1691 15.23374515385354 ISAT 1 43879U 18111D 25349.33274539 .00028053 00000-0 65787-3 0 9996 2 43879 97.5907 269.1347 0003593 235.6455 124.4451 15.42032145382643 UWE-4 1 43880U 18111E 25349.30700526 .00018103 00000-0 54235-3 0 9996 2 43880 97.5859 265.9023 0007202 265.0066 95.0355 15.34542787382478 Sparrow 1 43881U 18111F 25349.31350315 .00030405 00000-0 65989-3 0 9992 2 43881 97.6092 272.8849 0002431 317.7301 42.3759 15.44333297382768 Prox-1 1 44339U 19036A 25349.05939174 .00008882 00000-0 97963-3 0 9996 2 44339 23.9957 259.4081 0006516 68.5530 291.5663 14.85248184346015 Taurus 1 1 44530U 19059C 25349.35928925 .00005464 00000-0 93607-3 0 9993 2 44530 98.6222 138.3561 0009075 166.7190 193.4254 14.69197370331625 Duchifat 3 1 44854U 19089C 25342.89580904 .10801921 36355-5 10723-2 0 9995 2 44854 36.9163 249.0625 0006835 253.5286 106.4749 16.36980482331539 TO-108 1 44881U 19093C 25349.39376291 .00000843 00000-0 10220-3 0 9993 2 44881 97.7759 60.9660 0013142 337.5305 22.5334 14.86110679324118 FloripaSat 1 1 44885U 19093G 25349.30987969 .00006359 00000-0 49827-3 0 9991 2 44885 97.8039 77.5151 0010233 328.5010 31.5600 15.01308750325039 RS-44 1 44909U 19096E 25349.35952239 .00000006 00000-0 -16436-4 0 9993 2 44909 82.5213 101.8679 0217134 213.9485 144.7563 12.79746150278831 SALSAT 1 46495U 20068K 25349.21952746 .00005893 00000-0 22954-3 0 9993 2 46495 97.8782 336.6259 0009088 218.9721 141.0862 15.26370917287268 CSS (TIANHE-1) 1 48274U 21035A 25349.34074172 .00017163 00000-0 21538-3 0 9997 2 48274 41.4685 0.9167 0007961 52.8673 307.2892 15.59296400264433 TUBIN 1 48900U 21059X 25349.23810824 .03904209 26688-5 65555-3 0 9990 2 48900 97.6594 178.2202 0005622 265.0622 95.0032 16.33269075249739 CUTE 1 49263U 21088D 25349.21453040 .00030733 00000-0 39902-3 0 9997 2 49263 97.4347 72.1740 0004461 259.7487 100.3266 15.58768202233682 TeikyoSat 4 1 49396U 21102B 25349.32149806 .00002128 00000-0 13958-3 0 9995 2 49396 97.3899 20.8241 0011646 199.0761 161.0033 15.08653895224996 Z-Sat 1 49399U 21102E 25349.35061473 .00003883 00000-0 20216-3 0 9998 2 49399 97.3589 25.2156 0017599 162.8747 197.3084 15.16464667225562 KOSEN 1 1 49402U 21102H 25349.06748558 .00006338 00000-0 26636-3 0 9997 2 49402 97.3477 29.9092 0015808 133.5277 226.7277 15.23655443225953 HO-113 1 50466U 21131B 25349.35792370 .00000883 00000-0 28783-3 0 9998 2 50466 98.5048 77.7659 0003094 296.6849 63.4023 14.41117693208632 SNUGLITE 2 1 52899U 22065F 25349.33131321 .00001164 00000-0 23201-3 0 9991 2 52899 98.1921 129.8493 0006569 235.9154 124.1425 14.63844745184093 UmKA 1 (RS40S) 1 57172U 23091G 25349.37860142 .00005477 00000-0 27043-3 0 9993 2 57172 97.5345 43.8319 0014532 44.8327 315.4079 15.18207895136092 CubeBel-2 (EU11S) 1 57175U 23091K 25349.34733297 .00008836 00000-0 36587-3 0 9998 2 57175 97.5344 46.3112 0011920 47.9999 312.2251 15.24104003136259 RS-38S 1 57189U 23091Z 25349.38850733 .00011691 00000-0 41155-3 0 9992 2 57189 97.5369 50.8260 0008536 14.0736 346.0740 15.29449848136531 SONATE-2 1 59112U 24043Q 25349.30817397 .00022205 00000-0 46798-3 0 9990 2 59112 97.5320 125.6549 0009081 152.5497 207.6233 15.45222748 99370 MO-122 1 60209U 24125G 25349.31221615 .00024084 00000-0 48575-3 0 9995 2 60209 97.2525 199.6858 0014337 168.1212 192.0379 15.46421614 81008 GRBBeta 1 60237U 24128C 25349.01072217 .00003617 00000-0 26148-3 0 9999 2 60237 61.9890 141.6106 0056187 96.9844 263.7644 15.04781652 78533 Curium One 1 60242U 24128H 25349.11508685 .00006488 00000-0 40789-3 0 9995 2 60242 61.9783 136.0663 0056000 93.8679 266.8820 15.08942629 78641 ROBUSTA-3A 1 60243U 24128J 25348.72170913 .00006847 00000-0 43771-3 0 9994 2 60243 61.9859 138.9935 0056178 91.2694 269.4836 15.08252628 78564 CatSat 1 60246U 24125J 25349.33777353 .00026611 00000-0 63824-3 0 9995 2 60246 97.2314 196.6943 0034179 134.9888 225.4138 15.40741659 78922 HYPERVIEW-1G (RS66S) 1 61772U 24199AP 25349.32851488 .00031924 00000-0 60884-3 0 9998 2 61772 97.3213 218.7959 0008016 224.9300 135.1303 15.48069482106017 AO-123 1 61781U 24199AY 25349.35064377 .00008121 00000-0 26460-3 0 9999 2 61781 97.3254 214.7719 0012869 245.0614 114.9291 15.32010109105740 ZIMSAT 2 1 61783U 24199BA 25349.65557653 .00176124 00000-0 11846-2 0 9998 2 61783 97.3088 222.7659 0004182 174.0664 186.0651 15.74645839109467 HADES-R (SO-124) 1 62690U 25009CK 25349.20528066 .00123528 00000-0 15207-2 0 9999 2 62690 97.3863 71.9218 0001087 258.3750 101.7385 15.59815644 51161 HYDRA-T 1 62692U 25009CM 25349.18071537 .00138560 00000-0 15774-2 0 9995 2 62692 97.3868 72.1056 0001639 274.8603 85.2467 15.61814907 51176 JINJUSat 1B 1 63210U 25052A 25349.14498272 .00010215 00000-0 39056-3 0 9991 2 63210 97.4206 241.2851 0005270 41.8756 318.2886 15.26779390 41954 NUSHSAT 1 1 63211U 25052B 25349.20414196 .00013257 00000-0 48974-3 0 9990 2 63211 97.4187 241.4689 0005364 44.4071 315.7598 15.27849269 41975 TEVEL2-4 1 63213U 25052D 25348.94399458 .00011069 00000-0 41809-3 0 9994 2 63213 97.4107 240.7572 0004939 58.7302 301.4420 15.27162247 41929 TEVEL2-5 1 63214U 25052E 25349.14614184 .00011264 00000-0 42626-3 0 9999 2 63214 97.4100 240.9453 0004953 58.7678 301.4046 15.27093140 41957 TEVEL2-6 1 63215U 25052F 25349.28457870 .00011785 00000-0 44638-3 0 9995 2 63215 97.4108 241.0712 0005102 58.7757 301.3981 15.27050158 41972 TEVEL2-1 1 63217U 25052H 25349.19671716 .00012024 00000-0 45995-3 0 9998 2 63217 97.4084 240.7928 0005225 66.7745 293.4043 15.26716825 41951 TEVEL2-3 1 63218U 25052J 25349.13034184 .00011534 00000-0 44107-3 0 9994 2 63218 97.4083 240.7324 0005294 68.0022 292.1779 15.26737008 41947 TEVEL2-2 1 63219U 25052K 25349.13194210 .00010908 00000-0 41760-3 0 9998 2 63219 97.4084 240.7285 0005290 68.1420 292.0381 15.26714963 41947 TEVEL2-9 1 63237U 25052AD 25349.16294502 .00009963 00000-0 39891-3 0 9997 2 63237 97.4147 240.4625 0009342 75.6716 284.5558 15.25214946 41919 TEVEL2-7 1 63238U 25052AE 25349.17709748 .00011081 00000-0 44531-3 0 9993 2 63238 97.4146 240.4505 0009358 75.9168 284.3109 15.25062609 41914 TEVEL2-8 1 63239U 25052AF 25348.98593322 .00010816 00000-0 43519-3 0 9991 2 63239 97.4145 240.2455 0009373 76.2788 283.9493 15.25030119 41883 HYDRA-W 1 63490U 25052BL 25348.19495536 .00078851 00000-0 18529-2 0 9996 2 63490 97.4063 241.9963 0011524 68.3865 291.8608 15.41651156 41943 HADES-ICM (SO-125) 1 63492U 25052BN 25348.97147613 .00038798 00000-0 97714-3 0 9994 2 63492 97.4083 242.5092 0011745 69.2947 290.9556 15.39733774 42041 Dragonfly 1 65729U 98067XH 25348.77233981 .00152909 00000-0 10954-2 0 9998 2 65729 51.6244 125.3489 0006962 292.1448 67.8811 15.72674024 13483 RSP-03 1 65732U 98067XL 25349.09576733 .00101794 00000-0 84849-3 0 9994 2 65732 51.6255 124.5189 0005620 267.5982 92.4371 15.69261610 13536 GHS-01 1 65733U 98067XM 25349.10064835 .00167711 00000-0 10424-2 0 9990 2 65733 51.6273 123.0490 0007439 297.3204 62.7038 15.75909200 13557 BOTAN 1 65942U 98067XP 25347.80521917 .00116317 00000-0 12360-2 0 9993 2 65942 51.6273 133.9097 0002985 245.5023 114.5660 15.63168137 10037 BEE-1000 1 66650U 25274A 25349.03317377 .00001479 00000-0 15258-3 0 9992 2 66650 97.7391 276.1786 0010431 242.8102 117.2054 14.91671974 2748 SPIRONE 1 66657U 25274H 25348.88972094 .00002979 00000-0 29562-3 0 9993 2 66657 97.7387 276.0581 0010573 267.8338 92.1671 14.92469641 2728 K-HERO 1 66660U 25274L 25349.35266622 .00002831 00000-0 27764-3 0 9992 2 66660 97.7393 276.5294 0012467 271.0276 88.9515 14.92976466 2792 SNUGLITE-III DURI 1 66661U 25274M 25349.35082410 .00002562 00000-0 25087-3 0 9991 2 66661 97.7393 276.5309 0013118 272.4214 87.5504 14.93112348 2796 SilverSat 1 66909U 98067XV 25348.91541272 .00047853 00000-0 78463-3 0 9991 2 66909 51.6297 131.5680 0004168 239.8452 120.2125 15.51959159 1956 CEVROSAT1 1 98526U 25248E 25313.13142326 .00000000 00000-0 19360-3 0 02 2 98526 45.4084 218.4764 0001315 254.8982 242.1062 15.17981583 02